TimeCST,TemperatureF,Dew PointF,Humidity,Sea Level PressureIn,VisibilityMPH,Wind Direction,Wind SpeedMPH,Gust SpeedMPH,PrecipitationIn,Events,Conditions,WindDirDegrees,DateUTC
12:53 AM,64.0,61.0,90,29.95,8.0,ESE,4.6,-,0.00,,Overcast,110,2013-01-08 06:53:00
1:53 AM,64.0,61.0,90,29.94,7.0,SE,3.5,-,N/A,,Overcast,140,2013-01-08 07:53:00
2:31 AM,64.4,62.6,94,29.94,7.0,West,5.8,-,N/A,,Overcast,260,2013-01-08 08:31:00
2:50 AM,64.4,62.6,94,29.96,7.0,WSW,6.9,-,0.00,Rain,Light Rain,250,2013-01-08 08:50:00
2:53 AM,64.0,62.1,93,29.96,7.0,WSW,4.6,-,0.00,Rain,Light Rain,250,2013-01-08 08:53:00
3:46 AM,64.4,62.6,94,29.86,5.0,ESE,15.0,-,0.01,Rain,Light Rain,110,2013-01-08 09:46:00
3:53 AM,64.9,63.0,93,29.84,6.0,ESE,15.0,-,0.01,Rain,Light Rain,110,2013-01-08 09:53:00
4:04 AM,64.4,62.6,94,29.86,7.0,SE,13.8,-,0.00,Rain,Light Rain,130,2013-01-08 10:04:00
4:53 AM,64.9,63.0,93,29.89,8.0,South,4.6,-,0.00,,Clear,180,2013-01-08 10:53:00
5:50 AM,66.2,64.4,94,29.91,7.0,SSE,3.5,-,N/A,,Mostly Cloudy,150,2013-01-08 11:50:00
5:53 AM,66.0,64.0,93,29.91,7.0,SE,4.6,-,N/A,,Overcast,140,2013-01-08 11:53:00
6:09 AM,66.2,64.4,94,29.91,7.0,Calm,Calm,-,0.00,Rain,Light Rain,0,2013-01-08 12:09:00
6:32 AM,66.2,64.4,94,29.91,5.0,NNW,3.5,-,0.03,Rain,Light Rain,330,2013-01-08 12:32:00
6:44 AM,66.2,62.6,88,29.93,5.0,NW,6.9,-,0.04,Rain,Light Rain,310,2013-01-08 12:44:00
6:53 AM,66.0,64.0,93,29.91,6.0,North,4.6,-,0.05,Rain,Light Rain,10,2013-01-08 12:53:00
7:05 AM,66.2,64.4,94,29.90,7.0,ENE,5.8,-,0.00,Rain,Light Rain,70,2013-01-08 13:05:00
7:39 AM,66.2,64.4,94,29.86,5.0,ESE,12.7,-,0.00,,Overcast,110,2013-01-08 13:39:00
7:53 AM,66.9,64.9,93,29.87,6.0,SE,16.1,-,0.00,,Mostly Cloudy,140,2013-01-08 13:53:00
8:05 AM,68.0,66.2,94,29.89,7.0,SE,18.4,24.2,N/A,,Scattered Clouds,140,2013-01-08 14:05:00
8:53 AM,70.0,66.9,90,29.93,7.0,SSE,9.2,-,N/A,,Mostly Cloudy,150,2013-01-08 14:53:00
9:04 AM,69.8,66.2,88,29.95,7.0,South,8.1,-,N/A,Thunderstorm,Mostly Cloudy,170,2013-01-08 15:04:00
9:45 AM,69.8,66.2,88,29.95,2.5,ESE,5.8,-,0.01,Rain-Thunderstorm,Light Thunderstorms and Rain,120,2013-01-08 15:45:00
9:53 AM,69.1,66.9,93,29.94,3.0,East,6.9,-,0.01,Rain-Thunderstorm,Light Thunderstorms and Rain,100,2013-01-08 15:53:00
10:25 AM,69.8,68.0,94,29.93,7.0,East,8.1,-,0.00,,Overcast,100,2013-01-08 16:25:00
10:53 AM,69.1,66.9,93,29.93,3.0,SE,6.9,-,0.00,,Overcast,140,2013-01-08 16:53:00
11:23 AM,71.6,68.0,88,29.94,8.0,South,8.1,-,0.00,Rain,Light Rain,180,2013-01-08 17:23:00
11:38 AM,71.6,68.0,88,29.93,7.0,South,6.9,-,0.00,Rain,Light Rain,190,2013-01-08 17:38:00
11:53 AM,71.1,68.0,90,29.93,8.0,SSW,4.6,-,0.00,Rain,Light Rain,210,2013-01-08 17:53:00
12:09 PM,71.6,69.8,94,29.91,8.0,SSW,4.6,-,0.00,Rain,Light Rain,200,2013-01-08 18:09:00
12:17 PM,71.6,69.8,94,29.89,8.0,South,6.9,-,0.00,Rain,Light Rain,180,2013-01-08 18:17:00
12:53 PM,71.1,68.0,90,29.83,9.0,South,15.0,-,0.01,Rain,Light Rain,170,2013-01-08 18:53:00
1:53 PM,71.1,66.9,87,29.79,9.0,South,15.0,26.5,0.00,,Partly Cloudy,170,2013-01-08 19:53:00
2:53 PM,73.0,66.0,79,29.78,8.0,South,16.1,27.6,N/A,,Clear,180,2013-01-08 20:53:00
3:53 PM,72.0,66.0,81,29.74,8.0,South,13.8,-,0.00,,Clear,180,2013-01-08 21:53:00
4:53 PM,73.0,64.9,76,29.73,7.0,SSE,16.1,-,N/A,,Clear,160,2013-01-08 22:53:00
5:53 PM,73.9,64.9,73,29.76,9.0,South,12.7,-,0.00,Rain,Light Rain,190,2013-01-08 23:53:00
6:53 PM,70.0,64.0,81,29.79,8.0,SSE,10.4,23.0,0.00,,Clear,150,2013-01-09 00:53:00
7:18 PM,71.6,64.4,78,29.80,8.0,Variable,6.9,-,N/A,,Mostly Cloudy,0,2013-01-09 01:18:00
7:29 PM,69.8,64.4,83,29.78,8.0,East,8.1,-,N/A,,Scattered Clouds,90,2013-01-09 01:29:00
7:53 PM,70.0,64.0,81,29.82,8.0,South,6.9,-,N/A,,Mostly Cloudy,190,2013-01-09 01:53:00
8:53 PM,72.0,66.0,81,29.87,8.0,South,10.4,-,N/A,,Overcast,180,2013-01-09 02:53:00
9:16 PM,71.6,66.2,83,29.84,8.0,SE,17.3,-,0.00,Rain,Light Rain,140,2013-01-09 03:16:00
9:37 PM,71.6,66.2,83,29.85,7.0,SSE,13.8,-,0.00,Rain-Thunderstorm,Light Rain,150,2013-01-09 03:37:00
9:53 PM,71.1,66.9,87,29.87,7.0,SSE,11.5,-,0.01,Rain-Thunderstorm,Light Thunderstorms and Rain,160,2013-01-09 03:53:00
10:24 PM,71.6,68.0,88,29.88,5.0,South,5.8,-,0.03,Rain-Thunderstorm,Thunderstorms and Rain,190,2013-01-09 04:24:00
10:32 PM,69.8,68.0,94,29.88,5.0,South,4.6,-,0.04,Rain-Thunderstorm,Light Rain,190,2013-01-09 04:32:00
10:37 PM,69.8,68.0,94,29.88,6.0,South,5.8,-,0.04,Rain,Light Rain,190,2013-01-09 04:37:00
10:53 PM,70.0,68.0,93,29.88,5.0,SW,4.6,-,0.06,Rain,Rain,220,2013-01-09 04:53:00
11:30 PM,69.8,68.0,94,29.85,6.0,Calm,Calm,-,0.01,Rain,Light Rain,0,2013-01-09 05:30:00
11:53 PM,70.0,68.0,93,29.86,4.0,ESE,6.9,-,0.01,,Overcast,110,2013-01-09 05:53:00